SKYNET 5B

Last updated on Sun Jun 21 2026 00:03:04 GMT+0000 (Coordinated Universal Time)

1 32294U 07056B 26171.32574138 .00000134 00000+0 00000+0 0 9994 2 32294 5.2597 73.4683 0003894 10.4067 327.0857 1.00276241 68226
UTC large
Height (km)
Speed (km/s)
/
Latitude / Longitude
Inclination (degrees)
Orbital Period (minutes)
Azimuth
Elevation
Range (km)
Doppler Factor

Next 0 passes for location: London (51.5072 / 0.1276)

No passes found over London.
SKYNET 5B